Torna al catalogo

NIMBUS 2 DEB

AttivoSSO
NORAD 59977·DEBRIS·🇺🇸 United States

Lanciato May 15, 1966 da Vandenberg Space Force Base

Loading…

Prossimi Passaggi (prossime 24 ore)

TLE

AggiornatoSource: Space-Track

Epoca: Sep 14, 2026, 11:19 UTC

1 59977U 66040CG  26257.47170381  .00000872  00000-0  16438-2 0  9997
2 59977 100.3136  74.2915 0051280 354.1709   5.8816 13.41195470470224

Traccia NIMBUS 2 DEB in tempo reale con AllMySat

Download on the App Store